#timestamp,LO_Frequency,Hit,StdDev 
1508742015.4,286046995.3,P
1508742035.2,286046995.0,N
1508742055.0,286046994.6,N
1508742055.9,286046994.6,N
1508742075.8,286046993.4,N
1508742095.6,286046997.1,N
1508742115.4,286046997.3,N
1508742135.3,286046997.2,N
1508742155.1,286046997.9,N
1508742175.8,286046995.6,N
1508742195.7,286046996.9,N
1508742215.5,286047002.4,N
1508742235.3,286046998.8,N
1508742255.2,286046998.8,N
1508742275.0,286047001.0,N
1508742275.9,286047001.0,N
1508742295.7,286047000.2,N
1508742315.6,286046999.3,N
1508742335.4,286046997.0,N
1508742355.2,286046995.0,N
1508742375.1,286046997.3,N
1508742376.0,286046997.3,N
1508742395.8,286047000.5,N
1508742415.7,286047001.5,N
1508742435.5,286046998.3,N
1508742455.3,286047000.2,N
1508742475.1,286047000.1,N
1508742495.9,286046998.4,N
1508742515.7,286046998.2,N
1508742535.6,286046998.9,N
1508742555.4,286047000.2,N
1508742575.2,286047002.3,N
1508742595.1,286047000.1,N
1508742596.0,286047000.1,N
1508742615.8,286047001.3,N
1508742635.6,286046999.8,N
1508742655.5,286047002.1,N
1508742675.3,286047003.2,N
1508742695.1,286047004.3,N
1508742715.9,286047001.3,N
1508742735.7,286046999.0,N
1508742755.5,286046996.5,N
1508742775.4,286046997.1,N
1508742795.2,286047001.1,N
1508742815.0,286047002.5,N
1508742815.9,286047002.5,N
1508742835.8,286047001.7,N
1508742855.6,286046999.0,N
1508742875.4,286046999.3,N
1508742895.3,286046998.1,N
1508742915.1,286047001.9,N
1508742935.8,286047002.9,N
1508742955.7,286047001.9,N
1508742975.5,286047001.5,N
1508742995.3,286047002.3,N
1508743015.2,286046999.6,N
1508743035.0,286047000.2,N
1508743035.9,286047000.2,N
1508743055.7,286047002.0,N
1508743075.6,286047002.8,N
1508743095.4,286047002.0,N
1508743115.3,286046998.5,N
1508743135.1,286046996.8,N
1508743136.0,286046996.8,N
1508743155.8,286046999.4,N
1508743175.7,286047002.0,N
1508743195.5,286046996.7,N
1508743215.3,286046997.7,N
1508743235.2,286046999.1,N
1508743255.9,286046999.9,N
1508743275.7,286047002.4,N
1508743295.6,286047001.6,N
1508743315.4,286047001.8,N
1508743335.2,286047004.4,N
1508743355.1,286047002.3,N
1508743356.0,286047002.3,N
1508743375.8,286047002.0,N
1508743395.6,286047001.9,N
1508743415.5,286046999.8,N
1508743435.3,286046997.6,N
1508743455.1,286046996.8,N
1508743475.9,286046995.3,N
1508743495.7,286046997.0,N
1508743515.5,286046999.3,N
1508743535.4,286046995.4,N
1508743555.2,286046998.8,N
1508743575.0,286047002.4,N
1508743576.0,286047002.4,N
1508743595.8,286047003.9,N
1508743615.6,286047001.3,N
1508743635.5,286047004.4,N
1508743655.3,286047000.1,N
1508743675.1,286047000.1,N
1508743695.9,286047000.9,N
1508743715.7,286046999.9,N
1508743735.5,286047000.1,N
1508743755.4,286047000.4,N
1508743775.2,286046998.3,N
1508743795.0,286047000.1,N
1508743795.9,286047000.1,N
1508743815.8,286046999.2,N
1508743835.6,286046996.6,N
1508743855.4,286046998.6,N
1508743875.3,286047001.1,N
1508743895.1,286047000.6,N
1508743896.0,286047000.6,N
1508743915.8,286046998.3,N
1508743935.7,286046997.0,N
1508743955.5,286047002.8,N
1508743975.3,286047000.6,N
1508743995.2,286047000.2,N
1508744015.9,286046999.9,N
1508744035.7,286047000.3,N
1508744055.6,286046998.1,N
1508744075.4,286047003.7,N
1508744095.2,286047003.9,N
1508744115.1,286046997.2,N
1508744116.0,286046997.2,N
1508744135.8,286046997.9,N
1508744155.6,286046996.1,N
1508744175.5,286046995.8,N
1508744195.3,286046998.4,N
1508744215.1,286046996.8,N
1508744235.9,286046998.0,N
1508744255.7,286046996.1,N
1508744275.6,286046992.3,Y
1508744295.4,286046991.7,P
1508744315.2,286046994.2,N
1508744335.1,286046991.9,N
1508744336.0,286046991.9,N
1508744355.8,286046991.8,N
1508744375.6,286046991.8,Y
1508744395.5,286047000.1,P
1508744415.3,286047004.1,N
1508744435.1,286047000.9,N
1508744455.9,286047000.2,N
1508744475.7,286047001.3,N
1508744495.5,286047003.1,N
1508744515.4,286047003.4,N
1508744535.2,286047004.3,N
1508744555.0,286047010.4,Y
1508744555.9,286047010.4,P
1508744575.8,286047003.8,N
1508744595.6,286047006.0,N
1508744615.4,286047004.9,N
1508744635.3,286047006.4,N
1508744655.1,286047003.9,N
1508744675.8,286047007.4,N
1508744695.7,286047007.1,N
1508744715.5,286047005.4,N
1508744735.3,286047006.9,N
1508744755.2,286047001.9,N
1508744775.0,286047003.8,N
1508744775.9,286047003.8,N
1508744795.7,286047004.8,N
1508744815.6,286047004.1,N
1508744835.4,286047003.4,N
1508744855.3,286047000.2,N
1508744875.1,286047001.1,N
1508744876.0,286047001.1,N
1508744895.8,286047000.4,N
1508744915.7,286047000.1,N
1508744935.5,286047002.7,N
1508744955.3,286047004.8,N
1508744975.2,286047004.0,N
1508744995.9,286047001.5,N
1508745015.7,286047003.1,N
1508745035.6,286047004.5,N
1508745055.4,286047001.3,N
1508745075.2,286047004.3,N
1508745095.1,286047001.7,N
1508745096.0,286047001.7,N
1508745115.8,286047003.3,N
1508745135.6,286047001.2,N
1508745155.5,286046996.5,N
1508745175.3,286047001.5,N
1508745195.1,286047001.3,N
1508745215.9,286047004.3,N
1508745235.7,286047002.1,N
1508745255.5,286047004.4,N
1508745275.4,286047001.8,N
1508745295.2,286046999.9,N
1508745315.0,286046999.7,N
1508745315.9,286046999.7,N
1508745335.8,286047002.3,N
1508745355.6,286047003.0,N
1508745375.4,286047003.2,N
1508745395.3,286047002.9,N
1508745415.1,286047001.6,N
1508745435.8,286047002.0,N
1508745455.7,286047004.7,N
1508745475.5,286047007.4,Y
1508745495.4,286046998.5,P
1508745515.2,286047001.1,N
1508745535.0,286046998.9,N
1508745535.9,286046998.9,N
1508745555.8,286046998.2,N
1508745575.6,286046995.0,Y
1508745595.4,286046993.5,P
